• In Kazakhstan
  • List of Countries
  • For 7 days
  • Water Temperature
  • Satellite Maps
  • Weather Map
  • News
  • Weather Widgets
  • user-avatar
    Login

    Hourly Weather Ankara

    Today, 22 September, Friday

    Time Temperature Precipitation Wind Pressure Humidity
    00:00 +22°C° 0 mm 3 mps 682 mmHg 42%
    01:00 +21°C° 0 mm 4 mps 682 mmHg 51%
    02:00 +20°C° 0 mm 4 mps 682 mmHg 62%
    03:00 +19°C° 0 mm 4 mps 683 mmHg 67%
    04:00 +19°C° 0 mm 4 mps 683 mmHg 71%
    05:00 +18°C° 0 mm 4 mps 683 mmHg 75%
    06:00 +19°C° 0 mm 4 mps 683 mmHg 68%
    07:00 +19°C° 0 mm 5 mps 684 mmHg 60%
    08:00 +20°C° 0 mm 5 mps 684 mmHg 50%
    09:00 +21°C° 0 mm 5 mps 684 mmHg 43%
    10:00 +22°C° 0 mm 5 mps 685 mmHg 36%
    11:00 +22°C° 0 mm 5 mps 685 mmHg 30%
    12:00 +23°C° 0 mm 5 mps 685 mmHg 27%
    13:00 +23°C° 0 mm 5 mps 685 mmHg 25%
    14:00 +23°C° 0 mm 4 mps 685 mmHg 25%
    15:00 +23°C° 0 mm 4 mps 685 mmHg 26%
    16:00 +22°C° 0 mm 4 mps 685 mmHg 27%
    17:00 +22°C° 0 mm 3 mps 685 mmHg 27%
    18:00 +21°C° 0 mm 3 mps 685 mmHg 31%
    19:00 +20°C° 0 mm 3 mps 685 mmHg 35%
    20:00 +19°C° 0 mm 2 mps 685 mmHg 39%
    21:00 +19°C° 0 mm 2 mps 685 mmHg 44%
    22:00 +18°C° 0 mm 2 mps 685 mmHg 48%
    23:00 +17°C° 0 mm 2 mps 685 mmHg 52%

    Tomorrow, 23 September, Saturday

    Time Temperature Precipitation Wind Pressure Humidity
    00:00 +17°C° 0 mm 2 mps 685 mmHg 55%
    01:00 +16°C° 0 mm 1 mps 685 mmHg 58%
    02:00 +16°C° 0 mm 1 mps 686 mmHg 61%
    03:00 +16°C° 0 mm 1 mps 686 mmHg 63%
    04:00 +15°C° 0 mm 1 mps 686 mmHg 65%
    05:00 +15°C° 0 mm 1 mps 686 mmHg 66%
    06:00 +16°C° 0 mm 1 mps 686 mmHg 61%
    07:00 +18°C° 0 mm 1 mps 687 mmHg 56%
    08:00 +19°C° 0 mm 1 mps 687 mmHg 50%
    09:00 +19°C° 0 mm 2 mps 687 mmHg 45%
    10:00 +20°C° 0 mm 2 mps 687 mmHg 40%
    11:00 +21°C° 0 mm 3 mps 688 mmHg 35%
    12:00 +22°C° 0 mm 3 mps 688 mmHg 33%
    13:00 +22°C° 0 mm 3 mps 688 mmHg 30%
    14:00 +23°C° 0 mm 4 mps 688 mmHg 28%
    15:00 +23°C° 0 mm 4 mps 688 mmHg 28%
    16:00 +22°C° 0 mm 3 mps 688 mmHg 29%
    17:00 +22°C° 0 mm 3 mps 688 mmHg 29%
    18:00 +21°C° 0 mm 3 mps 688 mmHg 33%
    19:00 +20°C° 0 mm 3 mps 688 mmHg 37%
    20:00 +18°C° 0 mm 2 mps 688 mmHg 42%
    21:00 +18°C° 0 mm 2 mps 688 mmHg 46%
    22:00 +17°C° 0 mm 2 mps 688 mmHg 51%
    23:00 +16°C° 0 mm 2 mps 688 mmHg 56%

    Day after tomorrow, 24 September, Sunday

    Time Temperature Precipitation Wind Pressure Humidity
    00:00 +16°C° 0 mm 2 mps 688 mmHg 59%
    01:00 +15°C° 0 mm 2 mps 688 mmHg 63%
    02:00 +15°C° 0 mm 2 mps 688 mmHg 67%
    03:00 +15°C° 0 mm 2 mps 688 mmHg 70%
    04:00 +14°C° 0 mm 2 mps 688 mmHg 72%
    05:00 +14°C° 0 mm 2 mps 688 mmHg 75%
    06:00 +15°C° 0 mm 2 mps 688 mmHg 71%
    07:00 +16°C° 0 mm 2 mps 689 mmHg 68%
    08:00 +17°C° 0 mm 2 mps 689 mmHg 65%
    09:00 +19°C° 0 mm 2 mps 689 mmHg 57%
    10:00 +20°C° 0 mm 2 mps 689 mmHg 49%
    11:00 +23°C° 0 mm 2 mps 689 mmHg 41%
    12:00 +23°C° 0 mm 2 mps 689 mmHg 38%
    13:00 +24°C° 0 mm 2 mps 688 mmHg 34%
    14:00 +25°C° 0 mm 2 mps 688 mmHg 31%
    15:00 +25°C° 0 mm 2 mps 688 mmHg 31%
    16:00 +25°C° 0 mm 2 mps 688 mmHg 31%
    17:00 +25°C° 0 mm 2 mps 688 mmHg 32%
    18:00 +22°C° 0 mm 3 mps 688 mmHg 35%
    19:00 +21°C° 0 mm 3 mps 688 mmHg 39%
    20:00 +20°C° 0 mm 3 mps 688 mmHg 43%
    21:00 +19°C° 0 mm 3 mps 688 mmHg 49%
    22:00 +19°C° 0 mm 3 mps 688 mmHg 56%
    23:00 +18°C° 0 mm 3 mps 688 mmHg 62%

    25 September, Monday

    Time Temperature Precipitation Wind Pressure Humidity
    00:00 +17°C° 0 mm 3 mps 688 mmHg 66%
    01:00 +17°C° 0 mm 3 mps 688 mmHg 70%
    02:00 +16°C° 0 mm 3 mps 688 mmHg 74%
    03:00 +16°C° 0 mm 2 mps 688 mmHg 76%
    04:00 +15°C° 0 mm 2 mps 687 mmHg 79%
    05:00 +15°C° 0 mm 2 mps 687 mmHg 81%
    06:00 +16°C° 0 mm 2 mps 687 mmHg 75%
    07:00 +17°C° 0 mm 3 mps 688 mmHg 70%
    08:00 +18°C° 0 mm 3 mps 688 mmHg 64%
    09:00 +19°C° 0 mm 3 mps 688 mmHg 56%
    10:00 +21°C° 0 mm 3 mps 688 mmHg 48%
    11:00 +22°C° 0 mm 3 mps 688 mmHg 40%
    12:00 +24°C° 0 mm 3 mps 687 mmHg 37%
    13:00 +25°C° 0 mm 3 mps 687 mmHg 34%
    14:00 +26°C° 0 mm 2 mps 687 mmHg 31%
    15:00 +26°C° 0 mm 3 mps 687 mmHg 32%
    16:00 +25°C° 0 mm 3 mps 686 mmHg 33%
    17:00 +25°C° 0 mm 3 mps 686 mmHg 34%
    18:00 +24°C° 0 mm 3 mps 686 mmHg 37%
    19:00 +23°C° 0 mm 2 mps 686 mmHg 40%
    20:00 +21°C° 0 mm 2 mps 686 mmHg 43%
    21:00 +20°C° 0 mm 2 mps 686 mmHg 45%
    22:00 +20°C° 0 mm 2 mps 686 mmHg 46%
    23:00 +19°C° 0 mm 2 mps 686 mmHg 48%

    26 September, Tuesday

    Time Temperature Precipitation Wind Pressure Humidity
    00:00 +19°C° 0 mm 2 mps 686 mmHg 52%
    01:00 +19°C° 0 mm 2 mps 685 mmHg 56%
    02:00 +18°C° 0 mm 2 mps 685 mmHg 60%
    03:00 +18°C° 0 mm 2 mps 685 mmHg 62%
    04:00 +18°C° 0 mm 2 mps 685 mmHg 64%
    05:00 +18°C° 0 mm 2 mps 685 mmHg 66%
    06:00 +19°C° 0.1 mm 2 mps 685 mmHg 64%
    07:00 +19°C° 0.1 mm 2 mps 685 mmHg 61%
    08:00 +20°C° 0.1 mm 2 mps 685 mmHg 59%
    09:00 +21°C° 0 mm 2 mps 686 mmHg 52%
    10:00 +24°C° 0 mm 2 mps 686 mmHg 45%
    11:00 +26°C° 0 mm 2 mps 686 mmHg 37%
    12:00 +26°C° 0 mm 2 mps 686 mmHg 35%
    13:00 +27°C° 0 mm 2 mps 685 mmHg 32%
    14:00 +28°C° 0 mm 2 mps 685 mmHg 29%
    15:00 +28°C° 0.1 mm 2 mps 685 mmHg 30%
    16:00 +27°C° 0.1 mm 2 mps 685 mmHg 31%
    17:00 +27°C° 0.1 mm 2 mps 685 mmHg 32%
    18:00 +25°C° 0.3 mm 2 mps 685 mmHg 36%
    19:00 +24°C° 0.3 mm 2 mps 685 mmHg 41%
    20:00 +23°C° 0.3 mm 2 mps 685 mmHg 46%
    21:00 +21°C° 0.3 mm 2 mps 685 mmHg 48%
    22:00 +21°C° 0.3 mm 2 mps 685 mmHg 50%
    23:00 +21°C° 0.3 mm 1 mps 685 mmHg 53%

    27 September, Wednesday

    Time Temperature Precipitation Wind Pressure Humidity
    00:00 +21°C° 0 mm 1 mps 685 mmHg 54%
    01:00 +20°C° 0 mm 1 mps 685 mmHg 55%
    02:00 +20°C° 0 mm 1 mps 685 mmHg 57%
    03:00 +19°C° 0 mm 1 mps 686 mmHg 58%
    04:00 +19°C° 0 mm 1 mps 686 mmHg 60%
    05:00 +18°C° 0 mm 1 mps 686 mmHg 62%
    06:00 +20°C° 0 mm 1 mps 686 mmHg 58%
    07:00 +21°C° 0 mm 1 mps 687 mmHg 53%
    08:00 +20°C° 0 mm 0 mps 687 mmHg 49%
    09:00 +23°C° 0 mm 1 mps 687 mmHg 45%
    10:00 +24°C° 0 mm 1 mps 687 mmHg 40%
    11:00 +26°C° 0 mm 2 mps 688 mmHg 36%
    12:00 +26°C° 0 mm 2 mps 687 mmHg 33%
    13:00 +27°C° 0 mm 2 mps 687 mmHg 30%
    14:00 +28°C° 0 mm 3 mps 687 mmHg 27%
    15:00 +27°C° 0 mm 3 mps 687 mmHg 28%
    16:00 +27°C° 0 mm 3 mps 687 mmHg 28%
    17:00 +27°C° 0 mm 3 mps 687 mmHg 29%
    18:00 +25°C° 0 mm 3 mps 687 mmHg 33%
    19:00 +24°C° 0 mm 3 mps 687 mmHg 38%
    20:00 +23°C° 0 mm 2 mps 687 mmHg 42%
    21:00 +21°C° 0 mm 2 mps 687 mmHg 46%
    22:00 +20°C° 0 mm 2 mps 687 mmHg 50%
    23:00 +20°C° 0 mm 2 mps 687 mmHg 54%
    Show more